This is the latest recevied weather packets stored in our database for station/object WB6ANP. If no packets are shown the sender has not sent any weather packets the latest 10 day(s).
| Time | Temp. | Humidity | Pressure | Rain* | Wind** | Luminosity | Snow |
|---|---|---|---|---|---|---|---|
| 1777088283 | 18.89° C | 82% | 1005.8 hPa | 0 mm | - | 0 W/m² | - |
| 1777087978 | 19.44° C | 76% | 1005.7 hPa | 0 mm | - | 0 W/m² | - |
| 1777087677 | 20° C | 75% | 1005.5 hPa | 0 mm | - | 0 W/m² | - |
| 1777087372 | 20° C | 72% | 1005.8 hPa | 0 mm | - | 0 W/m² | - |
| 1777087067 | 20.56° C | 71% | 1005.7 hPa | 0 mm | - | 0 W/m² | - |
| 1777086763 | 20.56° C | 71% | 1005.7 hPa | 0 mm | - | 0 W/m² | - |
| 1777086458 | 20° C | 73% | 1005.6 hPa | 0 mm | - | 0 W/m² | - |
| 1777086154 | 20° C | 76% | 1005.7 hPa | 0 mm | - | 0 W/m² | - |
| 1777085850 | 20° C | 76% | 1005.6 hPa | 0 mm | - | 0 W/m² | - |
| 1777085547 | 20° C | 78% | 1005.6 hPa | 0 mm | - | 0 W/m² | - |
| 1777085242 | 20.56° C | 76% | 1005.5 hPa | 0 mm | - | 0 W/m² | - |
| 1777084939 | 20° C | 71% | 1005.5 hPa | 0 mm | - | 0 W/m² | - |
| 1777084635 | 20° C | 78% | 1005.4 hPa | 0 mm | - | 0 W/m² | - |
| 1777084330 | 20° C | 80% | 1005.1 hPa | 0 mm | - | 0 W/m² | - |
| 1777084024 | 20° C | 78% | 1005.3 hPa | 0 mm | - | 0 W/m² | - |
| 1777083722 | 20.56° C | 75% | 1004.9 hPa | 0 mm | - | 0 W/m² | - |
| 1777083418 | 20.56° C | 74% | 1004.9 hPa | 0 mm | - | 0 W/m² | - |
| 1777083116 | 20.56° C | 74% | 1004.8 hPa | 0 mm | - | 0 W/m² | - |
| 1777082815 | 20.56° C | 73% | 1004.7 hPa | 0 mm | - | 0 W/m² | - |
| 1777082511 | 20.56° C | 77% | 1004.7 hPa | 0 mm | - | 0 W/m² | - |
| 1777082205 | 20.56° C | 74% | 1004.6 hPa | 0 mm | - | 0 W/m² | - |
| 1777081900 | 20.56° C | 72% | 1004.4 hPa | 0 mm | - | 0 W/m² | - |
| 1777081596 | 20.56° C | 74% | 1004.5 hPa | 0 mm | - | 0 W/m² | - |
* Rain latest hour (hover to see other rain measurements)
** Current wind speed in m/s (hover to see current wind gust speed)